User: anonymous   Login
Location: Oberwangen
(47.4286°N, 8.9679°E)
Time: 19:31:32
(UTC+00:00)
Language:

Terra - Orbit

View from above orbital plane
View from above orbital plane
View from above satellite
View from above satellite

Ground track
Ground track

The orbit data is extracted from the following two-line orbital elements,

1 25994U 99068A   21261.55705059  .00000055  00000-0  22263-4 0  9998
2 25994  98.1694 334.2456 0001414  93.6138  13.2575 14.57129144156907
Epoch (UTC): 18 September 2021 13:22:09
Eccentricity: 0.0001414
inclination: 98.1694°
perigee height: 701 km
apogee height: 703 km
right ascension of ascending node: 334.2456°
argument of perigee: 93.6138°
revolutions per day: 14.57129144
mean anomaly at epoch: 13.2575°
orbit number at epoch: 15690

The dashed part of the orbit path shows where the satellite is in the earth's shadow,  

DLR